Dundee, United Kingdom

12:37 AM BST on March 27, 2017 (GMT +0100)
Dundee

Weather History for EGPN - January, 2014

Change the Weather History Date:

Saturday, January 18, 2014

  Actual Average Record
Temperature  
Mean Temperature 42 °F -  
Max Temperature 44 °F 43 °F 50 °F (2008)
Min Temperature 39 °F 34 °F 30 °F (2011)
Degree Days  
Heating Degree Days 24    
Moisture  
Dew Point 43 °F    
Average Humidity 99    
Maximum Humidity 100    
Minimum Humidity 93    
Precipitation  
Precipitation 0.00 in - - ()
Sea Level Pressure  
Sea Level Pressure 29.23 in    
Wind  
Wind Speed 10 mph ()    
Max Wind Speed 21 mph    
Max Gust Speed -    
Visibility 4.8 miles    
Events Rain    
Averages and records for this station are not official NWS values.
T = Trace of Precipitation, MM = Missing Value Source: Averaged Metar Reports

Daily Weather History Graph

Daily Weather History Graph

Search for Another Location

Airport or City:

Trip Planner

Search our weather history database for the weather conditions in past years. The results will help you decide how hot, cold, wet, or windy it might be!

Date:

Astronomy

Jan. 18, 2014 Rise Set
Actual Time 8:32 AM GMT 4:13 PM GMT
Civil Twilight 7:47 AM GMT 4:58 PM GMT
Nautical Twilight 6:59 AM GMT 5:45 PM GMT
Astronomical Twilight 6:15 AM GMT 6:30 PM GMT
Moon 7:19 PM GMT (1/18) 8:50 AM GMT (1/18)
Length of Visible Light 9h 10m
Length of Day
7h 41m
Waning Gibbous, 95% of the Moon is Illuminated
Jan 18
Waning Gibbous
Jan 24
Last Quarter
Jan 30
New
Feb 6
First Quarter
Feb 14
Full

Hourly Weather History & Observations

Time (GMT) Temp. Windchill Dew Point Humidity Pressure Visibility Wind Dir Wind Speed Gust Speed Precip Events Conditions
7:20 AM 41.0 °F 37.1 °F 41.0 °F 100% 29.24 in 6.2 mi ENE 5.8 mph - N/A   Scattered Clouds
7:50 AM 39.2 °F 35.0 °F 37.4 °F 93% 29.24 in 6.2 mi ENE 5.8 mph - N/A   Scattered Clouds
8:20 AM 41.0 °F 36.4 °F 41.0 °F 100% 29.24 in 6.2 mi ENE 6.9 mph - N/A   Scattered Clouds
8:50 AM 41.0 °F 37.1 °F 39.2 °F 93% 29.24 in 6.2 mi ENE 5.8 mph - N/A   Scattered Clouds
9:20 AM 41.0 °F 35.8 °F 41.0 °F 100% 29.27 in 6.2 mi ENE 8.1 mph - N/A   Scattered Clouds
9:50 AM 42.8 °F 37.5 °F 41.0 °F 93% 29.24 in 6.2 mi East 9.2 mph - N/A   Scattered Clouds
10:20 AM 42.8 °F 36.6 °F 41.0 °F 93% 29.27 in 6.2 mi East 11.5 mph - N/A   Scattered Clouds
10:50 AM 42.8 °F 36.6 °F 42.8 °F 100% 29.24 in 5.6 mi East 11.5 mph - N/A   Mostly Cloudy
11:20 AM 42.8 °F 36.6 °F 42.8 °F 100% 29.24 in 5.0 mi East 11.5 mph - N/A Rain Light Rain
11:50 AM 44.6 °F 38.1 °F 44.6 °F 100% 29.24 in 5.0 mi East 13.8 mph - N/A Rain Light Rain
12:20 PM 44.6 °F 38.4 °F 44.6 °F 100% 29.21 in 2.5 mi East 12.7 mph - N/A Rain Rain
12:50 PM 44.6 °F 37.4 °F 44.6 °F 100% 29.21 in 3.1 mi East 16.1 mph - N/A Rain Rain
1:20 PM 44.6 °F 36.9 °F 44.6 °F 100% 29.21 in 3.7 mi East 18.4 mph - N/A Rain Rain
1:50 PM 44.6 °F 36.6 °F 44.6 °F 100% 29.21 in 3.7 mi ESE 19.6 mph - N/A Rain Rain
2:20 PM 44.6 °F 36.9 °F 44.6 °F 100% 29.21 in 3.7 mi ESE 18.4 mph - N/A Rain Rain
2:50 PM 44.6 °F 36.9 °F 44.6 °F 100% 29.21 in 3.7 mi East 18.4 mph - N/A Rain Rain
3:20 PM 44.6 °F 36.9 °F 44.6 °F 100% 29.18 in 4.3 mi East 18.4 mph - N/A Rain Light Rain
3:50 PM 44.6 °F 36.4 °F 44.6 °F 100% 29.21 in 3.7 mi ESE 20.7 mph - N/A Rain Light Rain
4:20 PM 44.6 °F 36.9 °F 44.6 °F 100% 29.21 in 3.7 mi ESE 18.4 mph - N/A Rain Light Rain